Regional Weather Roundup
Issued by NWS Sioux Falls, SD

Home | Current Version | Previous Version | Text Only | Print | Product List | Glossary On
Versions: 1 2 3 4 5 6 7 8 9 10 11 12 13 14 15 16 17 18 19 20 21 22 23 24 25 26 27 28 29 30 31 32 33 34 35 36 37 38 39 40 41 42 43 44 45 46 47 48 49 50
000
ASUS43 KFSD 260910
RWRFSD

WEATHER ROUNDUP FOR SE SOUTH DAKOTA/SW MINNESOTA/NW IOWA
NATIONAL WEATHER SERVICE SIOUX FALLS SD
400 AM CDT FRI MAY 26 2017

NOTE: "FAIR" INDICATES FEW OR NO CLOUDS BELOW 12,000 FEET WITH NO
SIGNIFICANT WEATHER AND OR OBSTRUCTIONS TO VISIBILITY.


SDZ038>040-050-052>070-261000-
SOUTHEAST SOUTH DAKOTA

CITY           SKY/WX    TMP DP  RH WIND       PRES   REMARKS
BROOKINGS      PTCLDY    50  48  93 CALM      29.68R
CHAMBERLAIN    CLOUDY    56  46  68 W12       29.76R
HURON          CLOUDY    51  46  83 NW8       29.71R
MADISON        FAIR      50  50 100 W7        29.68S
MITCHELL       CLOUDY    55  46  71 NW14      29.72R
SIOUX FALLS    CLOUDY    53  51  93 NW3       29.66R
WINNER         FAIR      54  44  69 W12       29.79R
YANKTON        CLOUDY    58  54  86 NW12      29.68R
$$

MNZ071-072-080-081-089-090-097-098-261000-
SOUTHWEST MINNESOTA

CITY           SKY/WX    TMP DP  RH WIND       PRES   REMARKS
FAIRMONT       CLOUDY    58  52  80 S7        29.69S
JACKSON        CLOUDY    59  50  72 S5        29.69S
LUVERNE        PTCLDY    52  46  82 CALM      29.67R
MARSHALL       CLEAR     55  50  83 SW9       29.65F
MONTEVIDEO     CLOUDY    55  52  88 S5        29.65S
PIPESTONE      PTCLDY    54  46  76 CALM      29.67S
REDWOOD FALLS  CLOUDY    57  51  80 S3        29.66S
TRACY          PTCLDY    57  53  86 SW9       29.66S
WINDOM         CLOUDY    57  52  82 S5        29.68R
WORTHINGTON    PTCLDY    58  52  80 S9        29.68S
$$

IAZ001>003-012>014-020>022-031-032-NEZ013-014-SDZ071-261000-
NORTHWEST IOWA

CITY           SKY/WX    TMP DP  RH WIND       PRES   REMARKS
CHEROKEE       CLOUDY    59  55  87 CALM      29.67S
DENISON        CLOUDY    63  54  72 CALM      29.67F
ESTHERVILLE    CLOUDY    57  54  89 S8        29.68S
LE MARS        CLOUDY    57  54  88 CALM      29.66S
ORANGE CITY    CLOUDY    59  54  82 CALM      29.66S
SHELDON        MOCLDY    59  54  82 SE7       29.65S
SIOUX CITY     CLOUDY    59  56  89 E5        29.65S
SPENCER        CLOUDY    60  53  77 S8        29.68S
STORM LAKE     CLOUDY    59  54  82 SE7       29.68S
$$

ABBREVIATIONS USED IN REMARKS
   TC - TEMPERATURE IN CELSIUS
  WCI - WIND CHILL INDEX
   HX - HEAT INDEX
  VSB - VISIBILITY




USA.gov is the U.S. government's official web portal to all federal, state and local government web resources and services.